STARLINK-1797 (46698 NORAD) Tracking and Keplerian Element Data
This shows tracking and keplerian element data for the satellite.
Feedback or suggestion? Click here.
Element | Value |
Catalog | 46698 |
Name | STARLINK-1797 |
Epoch Orbit | 175 |
Epoch Day | 20.91667824 |
Epoch Year | 2021 |
RAAN | 13.2991 |
Inclination | 53.0528 |
Eccentricity | 0.0001687 |
Argument of Perigee | 75.4229 |
Mean Anonmoly | 99.5446 |
Mean Motion | 15.06374505 |
Decay Rate | 0.00027384 |
L1 | 1 46698U 20073AE 21020.91667824 .00027384 00000-0 18514-2 0 9998 |
L2 | 2 46698 53.0528 13.2991 0001687 75.4229 99.5446 15.06374505 1750 |
Live tracking and technical data element details for STARLINK-1797 (NORAD 46698). STARLINK-1797 can be tracked NOW for your location showing map with azimuth and elevation plus other details from your city location.
Track the satellite on the map from your city or location and see movement details for azimuth, elevation, latitude, longitude, range, height, and movement on the map or in text.
IsCatalogInMostPopularTable: catalog: 46698, numindb: 35
Update: records affected: 1
GetName: 46698 STARLINK-1797
Hit Count: updated at: Fri, 22 Jan 2021 16:40:25 GMT